Date String (YYYY-MM-DD hh:mm:ss) UTC,Instrument flags,Ambient pressure (hPa),Sample flow (lpm),Bypass flow (lpm),Sample temperature (°C),Ambient temperature (°C),ASC tube jacket temperature (°C),LED temperature (°C),Box temperature (°C),Sample RH (%),Span deviation,Mass concentration (μg/m³),Mass concentration (μg/m³),Mass concentration (μg/m³)
DateTimeUTC,F1_M11,P_M11,Q1_M11,Q2_M11,T1_M11,T2_M11,T3_M11,T4_M11,T5_M11,U1_M11,ZSPAN_M11,X0_M11,X2_M11,X1_M11
2021-09-29 08:00:00,,0819.6,4.99,0.00,30.3,29.5,00.0,39.3,32.1,20.0,0001.4,0011.34,0004.39,0003.82
2021-09-29 08:01:00,,0819.5,4.99,0.00,30.3,29.5,00.0,39.3,32.1,19.9,0001.4,0012.31,0004.43,0003.85
2021-09-29 08:02:00,,0819.5,5.01,0.00,30.3,29.5,00.0,39.3,32.1,19.9,0001.8,0012.78,0004.44,0003.88
2021-09-29 08:03:00,,0819.5,4.99,0.00,30.3,29.5,00.0,39.3,32.1,19.9,0001.8,0013.50,0004.52,0003.92
2021-09-29 08:04:00,,0819.5,5.01,0.00,30.3,29.6,00.0,39.4,32.1,19.6,0001.9,0013.86,0004.63,0003.96
2021-09-29 08:05:00,,0819.6,4.98,0.00,30.4,29.6,00.0,39.4,32.1,19.5,0002.1,0013.92,0004.66,0003.99
2021-09-29 08:06:00,,0819.6,5.00,0.00,30.4,29.6,00.0,39.4,32.1,19.6,0002.1,0014.06,0004.71,0004.00
2021-09-29 08:07:00,,0819.6,5.01,0.00,30.4,29.6,00.0,39.4,32.1,19.7,0002.2,0013.92,0004.80,0004.03
2021-09-29 08:08:00,,0819.6,4.99,0.00,30.4,29.6,00.0,39.4,32.2,19.7,0002.4,0013.37,0004.86,0004.05
2021-09-29 08:09:00,,0819.6,5.00,0.00,30.4,28.5,00.0,39.4,31.9,19.7,0002.5,0013.03,0004.90,0004.05
2021-09-29 08:10:00,,0819.6,5.00,0.00,30.2,26.5,00.0,39.4,31.4,19.9,0002.3,0013.14,0004.90,0004.05
2021-09-29 08:11:00,,0819.6,5.00,0.00,30.1,26.3,00.0,39.4,31.3,19.9,0002.3,0013.34,0004.90,0004.05
2021-09-29 08:12:00,,0819.6,5.00,0.00,30.0,26.7,00.0,39.3,31.3,20.0,0002.7,0012.71,0004.91,0004.04
2021-09-29 08:13:00,,0819.6,5.01,0.00,29.9,27.1,00.0,39.2,31.4,20.1,0002.6,0012.57,0004.92,0004.03
2021-09-29 08:14:00,,0819.6,5.00,0.00,29.9,27.5,00.0,39.2,31.4,20.2,0002.3,0012.09,0004.85,0004.01
2021-09-29 08:15:00,,0819.7,4.99,0.00,29.9,27.8,00.0,39.2,31.4,20.3,0002.0,0012.71,0004.85,0004.01
2021-09-29 08:16:00,,0819.7,5.00,0.00,29.9,28.1,00.0,39.1,31.5,20.2,0002.0,0012.73,0004.87,0004.02
2021-09-29 08:17:00,,0819.6,5.00,0.00,29.9,28.3,00.0,39.1,31.6,20.1,0002.0,0012.88,0004.89,0004.03
2021-09-29 08:18:00,,0819.7,4.99,0.00,29.9,28.5,00.0,39.1,31.6,20.0,0002.0,0013.14,0004.84,0004.02
2021-09-29 08:19:00,,0819.7,5.00,0.00,29.9,28.6,00.0,39.1,31.6,20.0,0001.5,0013.19,0004.79,0004.01
2021-09-29 08:20:00,,0819.7,4.99,0.00,29.9,28.7,00.0,39.1,31.7,20.0,0001.5,0013.81,0004.79,0004.01
2021-09-29 08:21:00,,0819.7,5.01,0.00,30.0,28.8,00.0,39.1,31.7,19.9,0001.8,0013.05,0004.80,0004.02
2021-09-29 08:22:00,,0819.7,5.00,0.00,30.0,28.9,00.0,39.1,31.7,19.8,0002.0,0013.08,0004.79,0004.02
2021-09-29 08:23:00,,0819.8,5.00,0.00,30.0,28.9,00.0,39.1,31.7,19.8,0002.1,0013.04,0004.76,0004.01
2021-09-29 08:24:00,,0819.8,5.01,0.00,30.0,29.0,00.0,39.1,31.7,19.8,0001.9,0012.88,0004.76,0004.01
2021-09-29 08:25:00,,0819.9,4.99,0.00,30.0,29.0,00.0,39.1,31.8,19.8,0002.1,0012.67,0004.74,0004.00
2021-09-29 08:26:00,,0819.8,5.01,0.00,30.1,29.1,00.0,39.1,31.8,19.8,0002.0,0012.02,0004.73,0003.99
2021-09-29 08:27:00,,0819.9,5.00,0.00,30.1,29.1,00.0,39.1,31.9,19.8,0001.9,0012.04,0004.76,0003.98
2021-09-29 08:28:00,,0819.9,4.99,0.00,30.1,29.2,00.0,39.2,31.9,19.6,0001.9,0012.61,0004.76,0003.98
2021-09-29 08:29:00,,0819.9,5.00,0.00,30.1,29.2,00.0,39.2,31.9,19.6,0001.8,0012.99,0004.77,0003.98
2021-09-29 08:30:00,,0819.9,4.99,0.00,30.1,29.2,00.0,39.2,31.9,19.5,0002.3,0013.59,0004.79,0003.99
2021-09-29 08:31:00,,0819.9,5.01,0.00,30.2,29.2,00.0,39.2,31.9,19.5,0002.5,0013.45,0004.80,0003.98
2021-09-29 08:32:00,,0819.9,4.98,0.00,30.2,29.3,00.0,39.2,32.0,19.5,0002.5,0013.01,0004.76,0003.98
2021-09-29 08:33:00,,0819.9,5.01,0.00,30.2,29.3,00.0,39.2,32.0,19.5,0002.5,0012.48,0004.73,0003.97
2021-09-29 08:34:00,,0819.9,4.99,0.00,30.2,29.3,00.0,39.2,32.0,19.5,0002.4,0012.21,0004.74,0003.98
2021-09-29 08:35:00,,0819.9,4.99,0.00,30.2,29.3,00.0,39.2,32.0,19.4,0002.3,0011.98,0004.71,0003.97
2021-09-29 08:36:00,,0819.9,5.01,0.00,30.2,29.4,00.0,39.3,32.0,19.4,0002.2,0011.97,0004.74,0003.97
2021-09-29 08:37:00,,0819.8,4.99,0.00,30.2,29.4,00.0,39.3,32.0,19.3,0002.5,0012.23,0004.75,0003.97
2021-09-29 08:38:00,,0819.9,5.00,0.00,30.3,29.4,00.0,39.3,32.0,19.3,0002.7,0012.55,0004.71,0003.96
2021-09-29 08:39:00,,0819.8,4.99,0.00,30.3,29.5,00.0,39.3,32.1,19.3,0002.8,0012.08,0004.68,0003.95
2021-09-29 08:40:00,,0819.8,5.01,0.00,30.3,29.5,00.0,39.3,32.1,19.2,0002.8,0011.97,0004.64,0003.94
2021-09-29 08:41:00,,0819.9,4.99,0.00,30.3,29.5,00.0,39.4,32.1,19.1,0002.5,0011.25,0004.58,0003.92
2021-09-29 08:42:00,,0819.8,5.00,0.00,30.3,29.5,00.0,39.4,32.1,19.1,0002.4,0011.55,0004.56,0003.90
2021-09-29 08:43:00,,0819.8,5.01,0.00,30.3,29.5,00.0,39.4,32.1,19.1,0002.2,0011.61,0004.58,0003.89
2021-09-29 08:44:00,,0819.8,4.98,0.00,30.4,29.6,00.0,39.4,32.1,19.0,0002.2,0011.78,0004.60,0003.88
2021-09-29 08:45:00,,0819.9,5.01,0.00,30.4,29.6,00.0,39.4,32.2,19.1,0002.2,0012.29,0004.58,0003.87
2021-09-29 08:46:00,,0819.9,5.00,0.00,30.4,29.5,00.0,39.5,32.2,19.1,0002.5,0013.07,0004.60,0003.88
2021-09-29 08:47:00,,0820.0,5.01,0.00,30.4,29.2,00.0,39.5,32.1,19.1,0002.6,0013.81,0004.60,0003.88
2021-09-29 08:48:00,,0819.9,4.99,0.00,30.3,27.2,00.0,39.4,31.5,19.3,0002.5,0014.07,0004.59,0003.88
2021-09-29 08:49:00,,0819.9,4.99,0.00,30.1,26.4,00.0,39.4,31.3,19.5,0002.2,0014.28,0004.56,0003.88
2021-09-29 08:50:00,,0819.9,5.02,0.00,30.0,26.6,00.0,39.3,31.3,19.6,0002.2,0014.06,0004.54,0003.88
2021-09-29 08:51:00,,0819.9,5.00,0.00,29.9,27.0,00.0,39.3,31.3,19.7,0001.9,0013.55,0004.57,0003.87
2021-09-29 08:52:00,,0819.9,4.99,0.00,29.9,27.4,00.0,39.2,31.4,19.7,0001.7,0013.55,0004.62,0003.88
2021-09-29 08:53:00,,0820.0,5.00,0.00,29.9,27.7,00.0,39.2,31.4,19.8,0001.8,0012.80,0004.60,0003.89
2021-09-29 08:54:00,,0819.9,5.01,0.00,29.9,28.0,00.0,39.2,31.5,19.8,0001.8,0012.45,0004.58,0003.89
2021-09-29 08:55:00,,0819.9,4.99,0.00,29.9,28.2,00.0,39.1,31.5,19.7,0001.6,0012.27,0004.55,0003.90
2021-09-29 08:56:00,,0819.9,5.00,0.00,29.9,28.4,00.0,39.1,31.6,19.7,0001.8,0011.90,0004.55,0003.91
2021-09-29 08:57:00,,0820.0,4.99,0.00,29.9,28.5,00.0,39.1,31.6,19.8,0001.8,0011.21,0004.52,0003.90
2021-09-29 08:58:00,,0819.9,5.00,0.00,29.9,28.6,00.0,39.1,31.7,19.8,0001.4,0011.80,0004.54,0003.90
2021-09-29 08:59:00,,0819.9,5.00,0.00,30.0,28.8,00.0,39.1,31.7,19.7,0001.4,0011.23,0004.56,0003.90
